Regional Weather Roundup
Issued by NWS

Home | Current Version | Previous Version | Text Only | Print | Product List | Glossary Off
Versions: 1 2 3 4 5 6 7 8 9 10 11 12 13 14 15 16 17 18 19 20 21 22 23 24 25 26 27 28 29 30 31 32 33 34 35 36 37 38 39 40 41 42 43 44 45 46 47 48 49 50

286
ASUS45 KCYS 240710
RWRWY

WYOMING REGIONAL WEATHER ROUNDUP
NATIONAL WEATHER SERVICE CHEYENNE WY
100 AM MDT MON JUL 24 2017

NOTE:  "FAIR" INDICATES FEW OR NO CLOUDS BELOW 12,000 FEET
WITH NO SIGNIFICANT WEATHER AND/OR OBSTRUCTIONS TO VISIBILITY.

WYZ001-240800-
YELLOWSTONE NATIONAL PARK

CITY           SKY/WX    TMP DP  RH WIND       PRES   REMARKS
LK YELLOWSTONE   N/A     46  38  73 CALM      30.28S
W YELLOWSTONE  NOT AVBL

$$
WYZ002>013-054>058-071-098>099-240800-
NORTHERN WYOMING

CITY           SKY/WX    TMP DP  RH WIND       PRES   REMARKS
JACKSON        FAIR      52  43  71 N8        30.17S
CODY           FAIR      72  39  30 SW13      30.02S
GREYBULL       FAIR      67  32  27 NW7       29.90R
WORLAND        FAIR      68  41  37 SW8       29.93S
SHERIDAN       FAIR      64  47  53 SW5       29.91R
BUFFALO        FAIR      70  38  31 N6        30.00S
GILLETTE       FAIR      67  56  67 E6        29.97S
HULETT         TSTM      68  55  64 E18G26    30.02F
NEWCASTLE      FAIR      79  43  27 SE16G30   29.95S

$$
WYZ014>020-022>026-101>103-240800-
CENTRAL WYOMING

CITY           SKY/WX    TMP DP  RH WIND       PRES   REMARKS
BIG PINEY      FAIR      53  38  56 N6        30.24R
PINEDALE       FAIR      52  41  66 N3        30.25R
DUBOIS         FAIR      57  34  41 NW9       30.22S
LANDER         FAIR      73  32  22 SW14      30.08R
RIVERTON       FAIR      69  34  27 NW13      30.05F
CASPER         FAIR      71  38  29 W13       30.01S
DOUGLAS        FAIR      70  46  42 SE6       29.98F

$$
WYZ021-027>030-104>119-240800-
SOUTHERN WYOMING

CITY           SKY/WX    TMP DP  RH WIND       PRES   REMARKS
EVANSTON       FAIR      62  41  46 SE7       30.24F
KEMMERER         N/A     57  37  47 NW8       30.26S
FORT BRIDGER   FAIR      68  37  31 W9        30.25F
ROCK SPRINGS   FAIR      69  34  27 W9        30.20S
RAWLINS        FAIR      64  26  23 CALM      30.18R
SARATOGA       FAIR      59  37  44 S15       30.21S
LARAMIE        FAIR      58  47  66 S13       30.21F
CHEYENNE       FAIR      68  50  52 S12G20    30.16S
TORRINGTON     FAIR      76  48  37 S20G25    29.98F
PINE BLUFFS    FAIR      72  46  40 S15       30.12S

$$




USA.gov is the U.S. government's official web portal to all federal, state and local government web resources and services.